| time (UTC) | temp C | wind direction | speed KPH | gust KPH | rain 1hr cm | rain 24hr cm | rain mn cm | humidity % | barometer mb |
| 20260506200822 | 21 | 109 | 3.2 | 11.3 | 0.00 | 0.00 | 0.00 | 57 | 1020.6 |
| 20260506200441 | 21 | 259 | 1.6 | 9.7 | 0.00 | 0.00 | 0.00 | 54 | 1020.7 |
| 20260506195329 | 21 | 119 | 1.6 | 11.3 | 0.00 | 0.00 | 0.00 | 55 | 1020.7 |
| 20260506194836 | 20 | 121 | 1.6 | 8.0 | 0.00 | 0.00 | 0.00 | 57 | 1020.5 |
| 20260506194347 | 21 | 136 | 1.6 | 8.0 | 0.00 | 0.00 | 0.00 | 57 | 1020.6 |
| 20260506193831 | 20 | 228 | 3.2 | 8.0 | 0.00 | 0.00 | 0.00 | 57 | 1020.6 |
| 20260506193819 | 21 | 79 | 1.6 | 8.0 | 0.00 | 0.00 | 0.00 | 56 | 1020.8 |
| 20260506193457 | 20 | 146 | 3.2 | 11.3 | 0.00 | 0.00 | 0.00 | 57 | 1020.6 |
| 20260506191836 | 20 | 124 | 1.6 | 6.4 | 0.00 | 0.00 | 0.00 | 57 | 1020.7 |
| 20260506191325 | 20 | 200 | 1.6 | 9.7 | 0.00 | 0.00 | 0.00 | 57 | 1021.0 |
| 20260506190824 | 20 | 165 | 1.6 | 9.7 | 0.00 | 0.00 | 0.00 | 57 | 1021.0 |
| 20260506190328 | 20 | 85 | 1.6 | 8.0 | 0.00 | 0.00 | 0.00 | 57 | 1021.1 |
| 20260506185820 | 20 | 149 | 3.2 | 8.0 | 0.00 | 0.00 | 0.00 | 60 | 1020.9 |
| 20260506185314 | 20 | 127 | 1.6 | 8.0 | 0.00 | 0.00 | 0.00 | 58 | 1020.9 |
| 20260506184955 | 19 | 195 | 3.2 | 11.3 | 0.00 | 0.00 | 0.00 | 60 | 1020.7 |
| 20260506184842 | 20 | 124 | 1.6 | 11.3 | 0.00 | 0.00 | 0.00 | 58 | 1020.9 |
| 20260506183813 | 19 | 127 | 1.6 | 8.0 | 0.00 | 0.00 | 0.00 | 61 | 1020.7 |
| 20260506183319 | 18 | 163 | 1.6 | 8.0 | 0.00 | 0.00 | 0.00 | 60 | 1020.8 |
| 20260506182825 | 19 | 122 | 3.2 | 6.4 | 0.00 | 0.00 | 0.00 | 58 | 1020.7 |
| 20260506182315 | 19 | 126 | 1.6 | 8.0 | 0.00 | 0.00 | 0.00 | 59 | 1020.8 |
| 20260506181816 | 19 | 90 | 3.2 | 9.7 | 0.00 | 0.00 | 0.00 | 61 | 1020.8 |
| 20260506181438 | 18 | 67 | 1.6 | 9.7 | 0.00 | 0.00 | 0.00 | 61 | 1020.7 |
| 20260506181334 | 19 | 141 | 3.2 | 9.7 | 0.00 | 0.00 | 0.00 | 60 | 1020.8 |
| 20260506180316 | 18 | 131 | 0.0 | 4.8 | 0.00 | 0.00 | 0.00 | 61 | 1020.7 |
| 20260506175816 | 18 | 57 | 1.6 | 6.4 | 0.00 | 0.00 | 0.00 | 62 | 1020.8 |
| 20260506175306 | 18 | 112 | 1.6 | 6.4 | 0.00 | 0.00 | 0.00 | 61 | 1020.7 |
| 20260506174808 | 17 | 130 | 1.6 | 8.0 | 0.00 | 0.00 | 0.00 | 62 | 1020.7 |
| 20260506174303 | 18 | 261 | 1.6 | 8.0 | 0.00 | 0.00 | 0.00 | 63 | 1020.7 |
| 20260506173800 | 17 | 76 | 1.6 | 8.0 | 0.00 | 0.00 | 0.00 | 62 | 1020.4 |
| 20260506173301 | 17 | 164 | 1.6 | 8.0 | 0.00 | 0.00 | 0.00 | 63 | 1020.5 |
| 20260506172758 | 17 | 234 | 1.6 | 8.0 | 0.00 | 0.00 | 0.00 | 65 | 1020.4 |
| 20260506172527 | 16 | 214 | 1.6 | 9.7 | 0.00 | 0.00 | 0.00 | 66 | 1020.3 |
| 20260506172331 | 17 | 136 | 1.6 | 8.0 | 0.00 | 0.00 | 0.00 | 65 | 1020.4 |
| 20260506171234 | 16 | 62 | 3.2 | 9.7 | 0.00 | 0.00 | 0.00 | 64 | 1020.3 |
| 20260506170741 | 16 | 67 | 3.2 | 8.0 | 0.00 | 0.00 | 0.00 | 65 | 1020.2 |
| 20260506170247 | 16 | 84 | 1.6 | 6.4 | 0.00 | 0.00 | 0.00 | 65 | 1020.1 |
| 20260506170237 | 16 | 178 | 1.6 | 6.4 | 0.00 | 0.00 | 0.00 | 65 | 1020.3 |
| 20260506170218 | 16 | 160 | 1.6 | 6.4 | 0.00 | 0.00 | 0.00 | 66 | 1020.1 |
| 20260506165825 | 16 | 117 | 0.0 | 3.2 | 0.00 | 0.00 | 0.00 | 65 | 1020.3 |
| 20260506164229 | 16 | 248 | 0.0 | 6.4 | 0.00 | 0.00 | 0.00 | 68 | 1020.0 |
| 20260506163726 | 15 | 70 | 1.6 | 6.4 | 0.00 | 0.00 | 0.00 | 66 | 1019.9 |
| 20260506163223 | 16 | 139 | 1.6 | 6.4 | 0.00 | 0.00 | 0.00 | 66 | 1019.9 |
| 20260506162711 | 16 | 66 | 0.0 | 3.2 | 0.00 | 0.00 | 0.00 | 66 | 1019.8 |
| 20260506162151 | 15 | 165 | 0.0 | 4.8 | 0.00 | 0.00 | 0.00 | 69 | 1019.9 |
| 20260506161648 | 15 | 143 | 0.0 | 4.8 | 0.00 | 0.00 | 0.00 | 69 | 1019.8 |
| 20260506161143 | 15 | 137 | 0.0 | 4.8 | 0.00 | 0.00 | 0.00 | 69 | 1019.9 |
| 20260506160643 | 15 | 154 | 0.0 | 4.8 | 0.00 | 0.00 | 0.00 | 69 | 1019.8 |
| 20260506160135 | 15 | 105 | 1.6 | 3.2 | 0.00 | 0.00 | 0.00 | 71 | 1019.8 |
| 20260506155727 | 15 | 155 | 0.0 | 3.2 | 0.00 | 0.00 | 0.00 | 70 | 1019.8 |
| 20260506155131 | 15 | 136 | 0.0 | 3.2 | 0.00 | 0.00 | 0.00 | 71 | 1019.6 |
| 20260506154630 | 14 | 207 | 1.6 | 4.8 | 0.00 | 0.00 | 0.00 | 73 | 1019.4 |
| 20260506154427 | 14 | 196 | 1.6 | 4.8 | 0.00 | 0.00 | 0.00 | 72 | 1019.6 |
| 20260506154211 | 14 | 119 | 1.6 | 4.8 | 0.00 | 0.00 | 0.00 | 73 | 1019.6 |
| 20260506153126 | 14 | 214 | 1.6 | 4.8 | 0.00 | 0.00 | 0.00 | 73 | 1019.6 |
| 20260506152624 | 14 | 173 | 1.6 | 4.8 | 0.00 | 0.00 | 0.00 | 73 | 1019.6 |
| 20260506152116 | 14 | 220 | 0.0 | 3.2 | 0.00 | 0.00 | 0.00 | 70 | 1019.3 |
| 20260506151617 | 14 | 119 | 0.0 | 1.6 | 0.00 | 0.00 | 0.00 | 70 | 1019.4 |
| 20260506151109 | 13 | 207 | 0.0 | 1.6 | 0.00 | 0.00 | 0.00 | 72 | 1019.2 |
| 20260506150621 | 13 | 94 | 0.0 | 0.0 | 0.00 | 0.00 | 0.00 | 74 | 1019.1 |
| 20260506150609 | 13 | 172 | 0.0 | 0.0 | 0.00 | 0.00 | 0.00 | 73 | 1019.2 |
| 20260506145612 | 13 | 108 | 0.0 | 0.0 | 0.00 | 0.00 | 0.00 | 74 | 1019.1 |
| 20260506145059 | 13 | 81 | 0.0 | 3.2 | 0.00 | 0.00 | 0.00 | 75 | 1019.1 |
| 20260506144554 | 13 | 71 | 0.0 | 3.2 | 0.00 | 0.00 | 0.00 | 73 | 1019.2 |
| 20260506144057 | 13 | 162 | 0.0 | 0.0 | 0.00 | 0.00 | 0.00 | 73 | 1019.2 |
| 20260506143535 | 13 | 157 | 0.0 | 0.0 | 0.00 | 0.00 | 0.00 | 72 | 1019.3 |
| 20260506143027 | 13 | 23 | 0.0 | 0.0 | 0.00 | 0.00 | 0.00 | 72 | 1019.4 |
| 20260506142544 | 12 | 23 | 0.0 | 0.0 | 0.00 | 0.00 | 0.00 | 81 | 1018.9 |
| 20260506142533 | 13 | 23 | 0.0 | 0.0 | 0.00 | 0.00 | 0.00 | 75 | 1019.1 |
| 20260506141523 | 11 | 23 | 0.0 | 0.0 | 0.00 | 0.00 | 0.00 | 81 | 1018.5 |
| 20260506141011 | 10 | 23 | 0.0 | 0.0 | 0.00 | 0.00 | 0.00 | 84 | 1018.5 |
| 20260506140516 | 10 | 23 | 0.0 | 0.0 | 0.00 | 0.00 | 0.00 | 86 | 1018.3 |
| 20260506140011 | 9 | 23 | 0.0 | 0.0 | 0.00 | 0.00 | 0.00 | 86 | 1018.0 |
| 20260506135511 | 9 | 23 | 0.0 | 0.0 | 0.00 | 0.00 | 0.00 | 87 | 1017.7 |
| 20260506135010 | 8 | 23 | 0.0 | 0.0 | 0.00 | 0.00 | 0.00 | 87 | 1017.6 |
| 20260506134515 | 8 | 23 | 0.0 | 0.0 | 0.00 | 0.00 | 0.00 | 88 | 1017.6 |
| 20260506134011 | 8 | 23 | 0.0 | 0.0 | 0.00 | 0.00 | 0.00 | 88 | 1017.5 |
| 20260506133513 | 8 | 23 | 0.0 | 0.0 | 0.00 | 0.00 | 0.00 | 87 | 1017.4 |
| 20260506133009 | 8 | 23 | 0.0 | 0.0 | 0.00 | 0.00 | 0.00 | 87 | 1017.5 |
| 20260506132438 | 8 | 23 | 0.0 | 0.0 | 0.00 | 0.00 | 0.00 | 87 | 1017.5 |
| 20260506131930 | 8 | 23 | 0.0 | 0.0 | 0.00 | 0.00 | 0.00 | 87 | 1017.4 |
| 20260506131422 | 8 | 23 | 0.0 | 0.0 | 0.00 | 0.00 | 0.00 | 87 | 1017.3 |
| 20260506130917 | 8 | 23 | 0.0 | 0.0 | 0.00 | 0.00 | 0.00 | 87 | 1017.4 |
| 20260506130416 | 8 | 23 | 0.0 | 0.0 | 0.00 | 0.00 | 0.00 | 87 | 1017.3 |
| 20260506125916 | 8 | 23 | 0.0 | 0.0 | 0.00 | 0.00 | 0.00 | 86 | 1017.2 |
| 20260506125412 | 8 | 23 | 0.0 | 0.0 | 0.00 | 0.00 | 0.00 | 86 | 1017.2 |
| 20260506124922 | 8 | 23 | 0.0 | 0.0 | 0.00 | 0.00 | 0.00 | 86 | 1017.2 |
| 20260506123913 | 8 | 23 | 0.0 | 0.0 | 0.00 | 0.00 | 0.00 | 86 | 1017.1 |
| 20260506123402 | 8 | 23 | 0.0 | 0.0 | 0.00 | 0.00 | 0.00 | 86 | 1017.0 |
| 20260506122842 | 8 | 23 | 0.0 | 0.0 | 0.00 | 0.00 | 0.00 | 85 | 1017.1 |
| 20260506122342 | 8 | 23 | 0.0 | 0.0 | 0.00 | 0.00 | 0.00 | 85 | 1016.9 |
| 20260506121836 | 8 | 23 | 0.0 | 0.0 | 0.00 | 0.00 | 0.00 | 85 | 1016.9 |
| 20260506121746 | 8 | 23 | 0.0 | 0.0 | 0.00 | 0.00 | 0.00 | 84 | 1017.2 |
| 20260506120838 | 8 | 23 | 0.0 | 0.0 | 0.00 | 0.00 | 0.00 | 84 | 1017.1 |
| 20260506120339 | 8 | 23 | 0.0 | 0.0 | 0.00 | 0.00 | 0.00 | 84 | 1017.1 |
| 20260506115935 | 8 | 23 | 0.0 | 0.0 | 0.00 | 0.00 | 0.00 | 84 | 1017.0 |
| 20260506115452 | 8 | 23 | 0.0 | 0.0 | 0.00 | 0.00 | 0.00 | 83 | 1017.0 |
| 20260506114921 | 9 | 23 | 0.0 | 0.0 | 0.00 | 0.00 | 0.00 | 83 | 1017.0 |
| 20260506114337 | 9 | 23 | 0.0 | 0.0 | 0.00 | 0.00 | 0.00 | 82 | 1017.0 |
| 20260506113850 | 9 | 23 | 0.0 | 0.0 | 0.00 | 0.00 | 0.00 | 82 | 1016.7 |
| 20260506113323 | 9 | 23 | 0.0 | 0.0 | 0.00 | 0.00 | 0.00 | 82 | 1016.9 |
| 20260506112819 | 9 | 23 | 0.0 | 0.0 | 0.00 | 0.00 | 0.00 | 82 | 1017.0 |
| 20260506112310 | 9 | 23 | 0.0 | 0.0 | 0.00 | 0.00 | 0.00 | 82 | 1016.9 |
| 20260506111810 | 9 | 23 | 0.0 | 0.0 | 0.00 | 0.00 | 0.00 | 81 | 1016.9 |
| 20260506111310 | 9 | 23 | 0.0 | 3.2 | 0.00 | 0.00 | 0.00 | 82 | 1016.8 |
| 20260506111250 | 9 | 23 | 0.0 | 3.2 | 0.00 | 0.00 | 0.00 | 82 | 1016.9 |
| 20260506110754 | 9 | 13 | 0.0 | 3.2 | 0.00 | 0.00 | 0.00 | 82 | 1016.9 |
| 20260506105809 | 9 | 1 | 0.0 | 0.0 | 0.00 | 0.00 | 0.00 | 82 | 1017.1 |
| 20260506105311 | 9 | 6 | 0.0 | 0.0 | 0.00 | 0.00 | 0.00 | 82 | 1017.0 |
| 20260506104811 | 9 | 6 | 0.0 | 1.6 | 0.00 | 0.00 | 0.00 | 82 | 1017.1 |
| 20260506104255 | 10 | 16 | 0.0 | 1.6 | 0.00 | 0.00 | 0.00 | 82 | 1017.2 |
| 20260506103751 | 10 | 1 | 0.0 | 3.2 | 0.00 | 0.00 | 0.00 | 82 | 1017.1 |
| 20260506103352 | 9 | 1 | 0.0 | 1.6 | 0.00 | 0.00 | 0.00 | 82 | 1017.2 |
| 20260506103309 | 10 | 1 | 0.0 | 3.2 | 0.00 | 0.00 | 0.00 | 82 | 1017.2 |
| 20260506102237 | 10 | 1 | 0.0 | 0.0 | 0.00 | 0.00 | 0.00 | 83 | 1017.1 |
| 20260506101736 | 9 | 1 | 0.0 | 0.0 | 0.00 | 0.00 | 0.00 | 82 | 1017.0 |
| 20260506101232 | 9 | 347 | 0.0 | 0.0 | 0.00 | 0.00 | 0.00 | 82 | 1017.1 |
| 20260506100728 | 9 | 347 | 0.0 | 1.6 | 0.00 | 0.00 | 0.00 | 82 | 1017.1 |
| 20260506100309 | 9 | 344 | 0.0 | 0.0 | 0.00 | 0.00 | 0.00 | 83 | 1017.1 |
| 20260506100238 | 9 | 347 | 0.0 | 1.6 | 0.00 | 0.00 | 0.00 | 82 | 1017.1 |
| 20260506095222 | 9 | 344 | 0.0 | 0.0 | 0.00 | 0.00 | 0.00 | 83 | 1017.2 |
| 20260506094726 | 9 | 344 | 0.0 | 0.0 | 0.00 | 0.00 | 0.00 | 82 | 1017.2 |
| 20260506093711 | 10 | 25 | 0.0 | 0.0 | 0.00 | 0.00 | 0.00 | 83 | 1017.3 |
| 20260506093658 | 9 | 25 | 0.0 | 0.0 | 0.00 | 0.00 | 0.00 | 82 | 1017.2 |
| 20260506092717 | 9 | 25 | 0.0 | 0.0 | 0.00 | 0.00 | 0.00 | 82 | 1017.2 |
| 20260506092212 | 9 | 25 | 0.0 | 0.0 | 0.00 | 0.00 | 0.00 | 82 | 1017.2 |
| 20260506091713 | 9 | 25 | 0.0 | 0.0 | 0.00 | 0.00 | 0.00 | 82 | 1017.3 |
| 20260506091133 | 9 | 25 | 0.0 | 0.0 | 0.00 | 0.00 | 0.00 | 83 | 1017.2 |
| 20260506090637 | 9 | 25 | 0.0 | 0.0 | 0.00 | 0.00 | 0.00 | 82 | 1017.2 |
| 20260506090232 | 9 | 25 | 0.0 | 0.0 | 0.00 | 0.00 | 0.00 | 83 | 1017.6 |
| 20260506090203 | 9 | 25 | 0.0 | 0.0 | 0.00 | 0.00 | 0.00 | 82 | 1017.3 |
| 20260506085118 | 9 | 21 | 0.0 | 1.6 | 0.00 | 0.00 | 0.00 | 84 | 1017.5 |
| 20260506084638 | 9 | 24 | 0.0 | 0.0 | 0.00 | 0.00 | 0.00 | 83 | 1017.7 |
| 20260506084624 | 9 | 13 | 0.0 | 1.6 | 0.00 | 0.00 | 0.00 | 83 | 1017.6 |
| 20260506083612 | 9 | 26 | 0.0 | 0.0 | 0.00 | 0.00 | 0.00 | 84 | 1017.6 |
| 20260506083545 | 9 | 26 | 0.0 | 0.0 | 0.00 | 0.00 | 0.00 | 84 | 1017.7 |
| 20260506082651 | 9 | 51 | 0.0 | 0.0 | 0.00 | 0.00 | 0.00 | 84 | 1017.6 |
| 20260506082624 | 9 | 46 | 0.0 | 0.0 | 0.00 | 0.00 | 0.00 | 84 | 1017.6 |
| 20260506081620 | 9 | 51 | 0.0 | 0.0 | 0.00 | 0.00 | 0.00 | 84 | 1017.6 |
| 20260506081116 | 9 | 40 | 0.0 | 1.6 | 0.00 | 0.00 | 0.00 | 84 | 1017.7 |
| 20260506080606 | 10 | 40 | 0.0 | 1.6 | 0.00 | 0.00 | 0.00 | 85 | 1018.0 |
| 20260506080107 | 10 | 40 | 0.0 | 0.0 | 0.00 | 0.00 | 0.00 | 84 | 1017.9 |
| 20260506073104 | 10 | 56 | 0.0 | 1.6 | 0.00 | 0.00 | 0.00 | 82 | 1018.0 |
| 20260506072605 | 10 | 57 | 0.0 | 1.6 | 0.00 | 0.00 | 0.00 | 81 | 1018.0 |
| 20260506072107 | 10 | 57 | 0.0 | 1.6 | 0.00 | 0.00 | 0.00 | 82 | 1017.9 |
| 20260506071608 | 10 | 58 | 0.0 | 0.0 | 0.00 | 0.00 | 0.00 | 81 | 1017.7 |
| 20260506071105 | 10 | 58 | 0.0 | 1.6 | 0.00 | 0.00 | 0.00 | 80 | 1017.7 |
| 20260506070534 | 10 | 58 | 0.0 | 3.2 | 0.00 | 0.00 | 0.00 | 80 | 1017.7 |
| 20260506061516 | 10 | 21 | 0.0 | 0.0 | 0.00 | 0.00 | 0.00 | 79 | 1017.2 |
| 20260506061017 | 10 | 21 | 0.0 | 3.2 | 0.00 | 0.00 | 0.00 | 79 | 1017.2 |
| 20260506060511 | 10 | 21 | 0.0 | 3.2 | 0.00 | 0.00 | 0.00 | 80 | 1017.3 |
| 20260506050917 | 10 | 57 | 0.0 | 1.6 | 0.00 | 0.00 | 0.00 | 81 | 1017.0 |
| 20260506044904 | 10 | 71 | 0.0 | 0.0 | 0.00 | 0.00 | 0.00 | 81 | 1016.8 |
| 20260506044415 | 10 | 71 | 0.0 | 0.0 | 0.00 | 0.00 | 0.00 | 81 | 1016.8 |
| 20260506043907 | 10 | 71 | 0.0 | 0.0 | 0.00 | 0.00 | 0.00 | 80 | 1016.8 |
| 20260506043400 | 10 | 71 | 0.0 | 0.0 | 0.00 | 0.00 | 0.00 | 80 | 1016.8 |
| 20260506042837 | 10 | 71 | 0.0 | 0.0 | 0.00 | 0.00 | 0.00 | 80 | 1016.8 |
| 20260506042756 | 10 | 74 | 0.0 | 1.6 | 0.00 | 0.00 | 0.00 | 80 | 1016.5 |
| 20260506041815 | 10 | 74 | 0.0 | 1.6 | 0.00 | 0.00 | 0.00 | 80 | 1016.4 |
| 20260506041344 | 11 | 79 | 0.0 | 3.2 | 0.00 | 0.00 | 0.00 | 79 | 1016.4 |
| 20260506041328 | 10 | 74 | 0.0 | 1.6 | 0.00 | 0.00 | 0.00 | 80 | 1016.4 |
| 20260506040739 | 11 | 79 | 0.0 | 3.2 | 0.00 | 0.00 | 0.00 | 79 | 1016.4 |
| 20260506040247 | 11 | 85 | 0.0 | 0.0 | 0.00 | 0.00 | 0.00 | 79 | 1016.5 |
| 20260506040003 | 11 | 85 | 0.0 | 0.0 | 0.00 | 0.00 | 0.00 | 79 | 1016.3 |
| 20260506034302 | 11 | 85 | 0.0 | 0.0 | 0.00 | 0.00 | 0.00 | 78 | 1016.3 |
| 20260506033736 | 11 | 85 | 0.0 | 0.0 | 0.00 | 0.00 | 0.00 | 77 | 1016.3 |
| 20260506033231 | 11 | 85 | 0.0 | 0.0 | 0.00 | 0.00 | 0.00 | 77 | 1016.3 |
| 20260506032732 | 12 | 85 | 0.0 | 0.0 | 0.00 | 0.00 | 0.00 | 77 | 1016.3 |
| 20260506032650 | 12 | 85 | 0.0 | 0.0 | 0.00 | 0.00 | 0.00 | 76 | 1016.3 |
| 20260506031714 | 12 | 85 | 0.0 | 0.0 | 0.00 | 0.00 | 0.00 | 75 | 1016.3 |
| 20260506031206 | 12 | 85 | 0.0 | 0.0 | 0.00 | 0.00 | 0.00 | 73 | 1016.1 |
| 20260506030658 | 12 | 89 | 0.0 | 0.0 | 0.00 | 0.00 | 0.00 | 73 | 1016.1 |
| 20260506030347 | 12 | 89 | 0.0 | 0.0 | 0.00 | 0.00 | 0.00 | 73 | 1015.9 |
| 20260506030228 | 12 | 89 | 0.0 | 0.0 | 0.00 | 0.00 | 0.00 | 73 | 1015.9 |
| 20260506025230 | 13 | 151 | 0.0 | 1.6 | 0.00 | 0.00 | 0.00 | 71 | 1015.6 |
| 20260506025155 | 12 | 89 | 0.0 | 0.0 | 0.00 | 0.00 | 0.00 | 72 | 1015.9 |
| 20260506024822 | 12 | 89 | 0.0 | 3.2 | 0.00 | 0.00 | 0.00 | 72 | 1015.7 |
| 20260506024217 | 13 | 89 | 0.0 | 3.2 | 0.00 | 0.00 | 0.00 | 72 | 1015.7 |
| 20260506023850 | 13 | 92 | 0.0 | 3.2 | 0.00 | 0.00 | 0.00 | 72 | 1015.7 |
| 20260506023230 | 13 | 67 | 0.0 | 1.6 | 0.00 | 0.00 | 0.00 | 71 | 1015.6 |
| 20260506022736 | 13 | 219 | 0.0 | 1.6 | 0.00 | 0.00 | 0.00 | 71 | 1015.6 |
| 20260506022329 | 13 | 123 | 0.0 | 0.0 | 0.00 | 0.00 | 0.00 | 71 | 1015.7 |
| 20260506021943 | 13 | 124 | 0.0 | 0.0 | 0.00 | 0.00 | 0.00 | 71 | 1015.7 |
| 20260506015739 | 14 | 113 | 1.6 | 4.8 | 0.00 | 0.00 | 0.00 | 66 | 1015.6 |
| 20260506015603 | 13 | 111 | 0.0 | 4.8 | 0.00 | 0.00 | 0.00 | 70 | 1015.6 |
| 20260506015126 | 13 | 142 | 0.0 | 3.2 | 0.00 | 0.00 | 0.00 | 70 | 1015.7 |
| 20260506014702 | 13 | 147 | 0.0 | 4.8 | 0.00 | 0.00 | 0.00 | 70 | 1015.6 |
| 20260506014047 | 13 | 162 | 0.0 | 4.8 | 0.00 | 0.00 | 0.00 | 69 | 1015.6 |
| 20260506013859 | 14 | 121 | 0.0 | 3.2 | 0.00 | 0.00 | 0.00 | 64 | 1015.6 |
| 20260506013821 | 14 | 134 | 0.0 | 4.8 | 0.00 | 0.00 | 0.00 | 65 | 1015.5 |
| 20260506013754 | 15 | 117 | 0.0 | 8.0 | 0.00 | 0.00 | 0.00 | 64 | 1015.6 |
| 20260506013608 | 13 | 108 | 0.0 | 1.6 | 0.00 | 0.00 | 0.00 | 69 | 1015.6 |
| 20260506013253 | 13 | 96 | 0.0 | 1.6 | 0.00 | 0.00 | 0.00 | 68 | 1015.5 |
| 20260506012913 | 13 | 131 | 0.0 | 3.2 | 0.00 | 0.00 | 0.00 | 68 | 1015.6 |
| 20260506012533 | 13 | 91 | 0.0 | 3.2 | 0.00 | 0.00 | 0.00 | 67 | 1015.6 |
| 20260506012132 | 14 | 141 | 0.0 | 3.2 | 0.00 | 0.00 | 0.00 | 67 | 1015.4 |
| 20260506011054 | 14 | 140 | 1.6 | 4.8 | 0.00 | 0.00 | 0.00 | 66 | 1015.5 |
| 20260506005741 | 14 | 114 | 1.6 | 4.8 | 0.00 | 0.00 | 0.00 | 66 | 1015.6 |
| 20260506003445 | 15 | 75 | 1.6 | 8.0 | 0.00 | 0.00 | 0.00 | 63 | 1015.5 |
| 20260506002937 | 15 | 126 | 1.6 | 8.0 | 0.00 | 0.00 | 0.00 | 63 | 1015.6 |
| 20260506002441 | 15 | 86 | 1.6 | 8.0 | 0.00 | 0.00 | 0.00 | 62 | 1015.6 |
| 20260506001939 | 15 | 99 | 1.6 | 6.4 | 0.00 | 0.00 | 0.00 | 62 | 1015.6 |
| 20260506001426 | 15 | 79 | 1.6 | 6.4 | 0.00 | 0.00 | 0.00 | 61 | 1015.6 |
| 20260506000913 | 15 | 91 | 0.0 | 4.8 | 0.00 | 0.00 | 0.00 | 60 | 1015.6 |
| 20260506000551 | 15 | 131 | 1.6 | 8.0 | 0.00 | 0.00 | 0.00 | 58 | 1015.6 |
| 20260506000456 | 15 | 89 | 1.6 | 8.0 | 0.00 | 0.00 | 0.00 | 59 | 1015.7 |
| 20260505235414 | 15 | 111 | 1.6 | 11.3 | 0.00 | 0.00 | 0.00 | 58 | 1015.7 |
| 20260505234914 | 16 | 184 | 1.6 | 11.3 | 0.00 | 0.00 | 0.00 | 57 | 1015.7 |
| 20260505234406 | 16 | 131 | 3.2 | 12.9 | 0.00 | 0.00 | 0.00 | 57 | 1015.7 |
| 20260505234253 | 16 | 150 | 3.2 | 11.3 | 0.00 | 0.00 | 0.00 | 57 | 1015.7 |
| 20260505234012 | 16 | 123 | 4.8 | 12.9 | 0.00 | 0.00 | 0.00 | 57 | 1015.8 |
| 20260505233136 | 15 | 114 | 3.2 | 9.7 | 0.00 | 0.00 | 0.00 | 60 | 1015.5 |
| 20260505232941 | 15 | 218 | 1.6 | 11.3 | 0.00 | 0.00 | 0.00 | 57 | 1015.6 |
| 20260505232333 | 15 | 252 | 1.6 | 6.4 | 0.00 | 0.00 | 0.00 | 62 | 1015.6 |
| 20260505232017 | 15 | 181 | 1.6 | 9.7 | 0.00 | 0.00 | 0.00 | 60 | 1015.6 |
| 20260505230848 | 14 | 105 | 1.6 | 8.0 | 0.00 | 0.00 | 0.00 | 63 | 1015.5 |
| 20260505230354 | 14 | 98 | 1.6 | 8.0 | 0.00 | 0.00 | 0.00 | 62 | 1015.6 |
| 20260505230036 | 13 | 146 | 0.0 | 4.8 | 0.00 | 0.00 | 0.00 | 63 | 1015.6 |
| 20260505225907 | 13 | 175 | 0.0 | 4.8 | 0.00 | 0.00 | 0.00 | 63 | 1015.6 |
| 20260505224840 | 13 | 124 | 0.0 | 4.8 | 0.00 | 0.00 | 0.00 | 63 | 1015.4 |
| 20260505224334 | 13 | 85 | 0.0 | 4.8 | 0.00 | 0.00 | 0.00 | 63 | 1015.6 |
| 20260505223921 | 13 | 92 | 1.6 | 8.0 | 0.00 | 0.00 | 0.00 | 64 | 1015.6 |
| 20260505223847 | 13 | 127 | 0.0 | 4.8 | 0.00 | 0.00 | 0.00 | 63 | 1015.4 |
| 20260505222853 | 13 | 94 | 0.0 | 4.8 | 0.00 | 0.00 | 0.00 | 63 | 1015.5 |
| 20260505222825 | 13 | 96 | 1.6 | 8.0 | 0.00 | 0.00 | 0.00 | 63 | 1015.6 |
| 20260505221810 | 13 | 117 | 0.0 | 6.4 | 0.00 | 0.00 | 0.00 | 63 | 1015.6 |
| 20260505221339 | 13 | 101 | 1.6 | 8.0 | 0.00 | 0.00 | 0.00 | 63 | 1015.7 |
| 20260505221319 | 13 | 111 | 1.6 | 8.0 | 0.00 | 0.00 | 0.00 | 63 | 1015.7 |
| 20260505220251 | 13 | 166 | 1.6 | 6.4 | 0.00 | 0.00 | 0.00 | 63 | 1015.7 |
| 20260505215750 | 14 | 160 | 1.6 | 6.4 | 0.00 | 0.00 | 0.00 | 62 | 1015.7 |
| 20260505215250 | 14 | 98 | 1.6 | 6.4 | 0.00 | 0.00 | 0.00 | 62 | 1015.6 |
| 20260505214734 | 14 | 174 | 1.6 | 6.4 | 0.00 | 0.00 | 0.00 | 62 | 1015.6 |
| 20260505214235 | 14 | 64 | 1.6 | 11.3 | 0.00 | 0.00 | 0.00 | 62 | 1015.6 |
| 20260505214041 | 14 | 129 | 0.0 | 6.4 | 0.00 | 0.00 | 0.00 | 63 | 1015.7 |
| 20260505213827 | 14 | 143 | 1.6 | 11.3 | 0.00 | 0.00 | 0.00 | 63 | 1015.6 |
| 20260505212731 | 14 | 109 | 1.6 | 6.4 | 0.00 | 0.00 | 0.00 | 64 | 1015.7 |
| 20260505212232 | 14 | 117 | 1.6 | 6.4 | 0.00 | 0.00 | 0.00 | 63 | 1015.8 |
| 20260505211719 | 14 | 155 | 1.6 | 9.7 | 0.00 | 0.00 | 0.00 | 63 | 1015.7 |
| 20260505211221 | 14 | 116 | 1.6 | 9.7 | 0.00 | 0.00 | 0.00 | 63 | 1015.8 |
| 20260505210955 | 15 | 93 | 1.6 | 8.0 | 0.00 | 0.00 | 0.00 | 63 | 1015.8 |
| 20260505210804 | 14 | 110 | 1.6 | 6.4 | 0.00 | 0.00 | 0.00 | 63 | 1015.8 |
| 20260505205714 | 15 | 88 | 1.6 | 8.0 | 0.00 | 0.00 | 0.00 | 64 | 1015.8 |
| 20260505205527 | 15 | 122 | 1.6 | 14.5 | 0.00 | 0.00 | 0.00 | 64 | 1015.8 |
| 20260505205259 | 15 | 118 | 1.6 | 6.4 | 0.00 | 0.00 | 0.00 | 64 | 1015.8 |
| 20260505204147 | 15 | 120 | 1.6 | 14.5 | 0.00 | 0.00 | 0.00 | 62 | 1015.8 |
| 20260505203649 | 16 | 98 | 0.0 | 4.8 | 0.00 | 0.00 | 0.00 | 60 | 1015.9 |
| 20260505203151 | 16 | 269 | 3.2 | 12.9 | 0.00 | 0.00 | 0.00 | 57 | 1015.9 |
| 20260505202646 | 16 | 279 | 3.2 | 12.9 | 0.00 | 0.00 | 0.00 | 56 | 1015.9 |
| 20260505202143 | 16 | 340 | 3.2 | 11.3 | 0.00 | 0.00 | 0.00 | 55 | 1015.9 |